N5KR Weather Reports


Display with metric or nautical units.
time (UTC)temp
F
wind
direction
speed
MPH
gust
MPH
rain 1hr
in
rain 24hr
in
rain mn
in
humidity
%
barometer
mb
20260508011006 67 162 8.0 13.0 0.00 0.00 0.00 61 1015.5
20260508010506 67 167 6.0 9.0 0.00 0.00 0.00 61 1015.5
20260508010006 67 172 5.0 9.0 0.00 0.00 0.00 61 1015.3
20260508005506 68 178 7.0 14.0 0.00 0.00 0.00 60 1015.3
20260508005006 68 163 7.0 13.0 0.00 0.00 0.00 61 1015.4
20260508004006 68 162 6.0 12.0 0.00 0.00 0.00 60 1015.4
20260508002506 69 158 4.0 13.0 0.00 0.00 0.00 60 1015.5
20260508002005 69 164 7.0 12.0 0.00 0.00 0.00 60 1015.6
20260508001505 69 170 7.0 14.0 0.00 0.00 0.00 59 1015.6
20260508001005 70 168 7.0 15.0 0.00 0.00 0.00 59 1015.5
20260508000506 71 189 7.0 10.0 0.00 0.00 0.00 57 1015.5
20260507235005 72 107 5.0 8.0 0.00 0.00 0.00 49 1015.3
20260507234506 72 113 5.0 9.0 0.00 0.00 0.00 49 1015.4
20260507234005 72 128 3.0 7.0 0.00 0.00 0.00 49 1015.3
20260507233006 72 157 2.0 7.0 0.00 0.00 0.00 51 1015.4
20260507232506 72 111 4.0 7.0 0.00 0.00 0.00 49 1015.4
20260507231506 73 110 4.0 9.0 0.00 0.00 0.00 50 1015.5
20260507231005 73 108 3.0 8.0 0.00 0.00 0.00 49 1015.6
20260507230006 73 157 5.0 9.0 0.00 0.00 0.00 48 1015.4
20260507225506 73 156 3.0 6.0 0.00 0.00 0.00 46 1015.4
20260507225005 73 178 2.0 5.0 0.00 0.00 0.00 45 1015.4
20260507224506 73 178 0.0 3.0 0.00 0.00 0.00 44 1015.6
20260507224006 74 178 1.0 2.0 0.00 0.00 0.00 45 1015.7
20260507223506 74 178 1.0 5.0 0.00 0.00 0.00 44 1015.7
20260507222506 74 153 1.0 6.0 0.00 0.00 0.00 44 1015.7
20260507222006 74 110 3.0 7.0 0.00 0.00 0.00 46 1015.8
20260507221505 74 171 3.0 6.0 0.00 0.00 0.00 45 1015.7
20260507221006 74 171 4.0 6.0 0.00 0.00 0.00 43 1015.7
20260507220505 74 171 3.0 5.0 0.00 0.00 0.00 42 1015.8
20260507215505 74 142 2.0 5.0 0.00 0.00 0.00 43 1015.9
20260507215005 74 98 3.0 5.0 0.00 0.00 0.00 43 1016.0
20260507214505 74 46 2.0 6.0 0.00 0.00 0.00 43 1016.1
20260507214006 74 14 2.0 5.0 0.00 0.00 0.00 43 1016.0
20260507212005 74 14 1.0 6.0 0.00 0.00 0.00 43 1016.2
20260507211505 75 347 4.0 8.0 0.00 0.00 0.00 43 1016.2
20260507210505 75 5 4.0 8.0 0.00 0.00 0.00 43 1016.4
20260507210006 75 2 3.0 7.0 0.00 0.00 0.00 44 1016.2
20260507205005 75 62 3.0 8.0 0.00 0.00 0.00 43 1016.2
20260507204505 75 66 3.0 9.0 0.00 0.00 0.00 43 1016.2
20260507203505 75 19 2.0 6.0 0.00 0.00 0.00 44 1016.3
20260507203006 75 275 0.0 3.0 0.00 0.00 0.00 42 1016.5
20260507202506 75 348 3.0 6.0 0.00 0.00 0.00 42 1016.5
20260507202006 75 19 3.0 6.0 0.00 0.00 0.00 43 1016.5
20260507201505 74 89 2.0 7.0 0.00 0.00 0.00 43 1016.7
20260507200505 74 117 4.0 8.0 0.00 0.00 0.00 44 1016.8
20260507200005 74 21 3.0 7.0 0.00 0.00 0.00 45 1016.7
20260507195505 74 9 1.0 7.0 0.00 0.00 0.00 45 1016.9
20260507195005 75 0 5.0 13.0 0.00 0.00 0.00 43 1016.8
20260507194505 75 339 4.0 12.0 0.00 0.00 0.00 43 1017.1
20260507194005 75 343 5.0 13.0 0.00 0.00 0.00 44 1017.2
20260507193505 75 352 3.0 8.0 0.00 0.00 0.00 45 1017.1
20260507192505 74 12 5.0 12.0 0.00 0.00 0.00 44 1017.4
20260507192005 74 13 2.0 8.0 0.00 0.00 0.00 45 1017.4
20260507191505 74 336 5.0 15.0 0.00 0.00 0.00 45 1017.4
20260507190505 74 42 6.0 12.0 0.00 0.00 0.00 45 1017.5
20260507190005 73 4 6.0 15.0 0.00 0.00 0.00 44 1017.5
20260507185505 73 332 5.0 10.0 0.00 0.00 0.00 45 1017.6
20260507185005 74 87 7.0 13.0 0.00 0.00 0.00 45 1017.6
20260507184505 73 24 6.0 13.0 0.00 0.00 0.00 44 1017.7
20260507184005 72 7 6.0 13.0 0.00 0.00 0.00 44 1017.8
20260507183505 73 1 6.0 13.0 0.00 0.00 0.00 43 1017.8
20260507183005 73 47 5.0 12.0 0.00 0.00 0.00 48 1018.1
20260507182505 72 49 3.0 8.0 0.00 0.00 0.00 45 1018.0
20260507182005 72 39 3.0 12.0 0.00 0.00 0.00 47 1018.2
20260507181504 72 45 7.0 13.0 0.00 0.00 0.00 46 1018.3
20260507180005 72 48 6.0 12.0 0.00 0.00 0.00 48 1018.5
20260507175505 71 11 5.0 12.0 0.00 0.00 0.00 48 1018.5
20260507175005 71 27 5.0 13.0 0.00 0.00 0.00 48 1018.7
20260507174505 70 57 6.0 13.0 0.00 0.00 0.00 49 1018.8
20260507174005 70 356 3.0 13.0 0.00 0.00 0.00 49 1018.9
20260507173505 70 78 3.0 9.0 0.00 0.00 0.00 51 1019.1
20260507173005 69 73 4.0 9.0 0.00 0.00 0.00 52 1019.2
20260507172505 70 30 4.0 8.0 0.00 0.00 0.00 52 1019.4
20260507172005 69 54 2.0 8.0 0.00 0.00 0.00 52 1019.5
20260507171005 69 26 5.0 9.0 0.00 0.00 0.00 50 1019.7
20260507170505 69 24 3.0 6.0 0.00 0.00 0.00 54 1019.8
20260507170005 68 23 3.0 13.0 0.00 0.00 0.00 53 1019.8
20260507165005 68 70 7.0 12.0 0.00 0.00 0.00 53 1019.9
20260507164505 67 358 2.0 9.0 0.00 0.00 0.00 54 1020.0
20260507163505 67 21 3.0 10.0 0.00 0.00 0.00 53 1020.0
20260507163005 67 77 2.0 12.0 0.00 0.00 0.00 53 1020.0
20260507162005 67 73 5.0 13.0 0.00 0.00 0.00 56 1019.8
20260507161505 67 48 3.0 9.0 0.00 0.00 0.00 56 1019.9
20260507161004 66 18 6.0 10.0 0.00 0.00 0.00 56 1020.0
20260507160505 66 19 3.0 8.0 0.00 0.00 0.00 55 1019.9
20260507160005 66 60 4.0 8.0 0.00 0.00 0.00 56 1020.1
20260507154504 66 16 5.0 8.0 0.00 0.01 0.00 55 1020.1
20260507154005 65 90 5.0 9.0 0.00 0.01 0.00 59 1020.2
20260507153505 64 350 6.0 13.0 0.00 0.05 0.00 58 1020.3
20260507153004 65 10 5.0 10.0 0.00 0.13 0.00 59 1020.2
20260507152504 64 46 5.0 13.0 0.00 0.13 0.00 59 1020.3
20260507152005 65 8 4.0 9.0 0.00 0.13 0.00 59 1020.4
20260507150504 64 12 3.0 12.0 0.00 0.13 0.00 61 1020.5
20260507150006 64 9 2.0 9.0 0.00 0.13 0.00 63 1020.4
20260507145004 63 18 3.0 13.0 0.00 0.13 0.00 65 1020.3
20260507144005 62 77 6.0 13.0 0.00 0.13 0.00 65 1020.5
20260507143505 62 352 3.0 10.0 0.00 0.13 0.00 68 1020.4
20260507143004 62 8 2.0 7.0 0.00 0.13 0.00 70 1020.5
20260507142504 61 69 3.0 7.0 0.00 0.13 0.00 70 1020.5
20260507142005 61 336 5.0 8.0 0.00 0.13 0.00 70 1020.4
20260507141505 61 82 2.0 6.0 0.00 0.13 0.00 71 1020.6
20260507140504 60 10 1.0 5.0 0.00 0.13 0.00 73 1020.7
20260507140005 60 11 0.0 5.0 0.00 0.13 0.00 73 1020.8
20260507135504 60 0 2.0 6.0 0.00 0.13 0.00 74 1020.8
20260507135005 59 37 1.0 5.0 0.00 0.13 0.00 74 1020.8
20260507134505 59 0 2.0 5.0 0.00 0.13 0.00 76 1020.9
20260507134004 58 13 2.0 8.0 0.00 0.13 0.00 77 1020.9
20260507133004 57 350 1.0 9.0 0.00 0.13 0.00 80 1020.9
20260507132004 56 343 1.0 5.0 0.00 0.13 0.00 82 1020.9
20260507131504 56 342 0.0 3.0 0.00 0.13 0.00 83 1020.9
20260507131004 55 342 3.0 5.0 0.00 0.13 0.00 84 1020.8
20260507130005 55 342 1.0 6.0 0.00 0.13 0.00 85 1020.6
20260507125505 55 333 3.0 6.0 0.00 0.13 0.00 85 1020.5
20260507125005 54 345 1.0 7.0 0.00 0.13 0.00 85 1020.5
20260507124504 54 5 0.0 0.0 0.00 0.13 0.00 87 1020.5
20260507124004 54 5 0.0 0.0 0.00 0.13 0.00 87 1020.5
20260507123504 53 12 0.0 0.0 0.00 0.13 0.00 88 1020.6
20260507122504 53 43 0.0 0.0 0.00 0.13 0.00 90 1020.5
20260507122005 53 43 0.0 0.0 0.00 0.13 0.00 90 1020.4
20260507121504 52 43 0.0 0.0 0.00 0.13 0.00 90 1020.3
20260507120504 52 43 0.0 0.0 0.00 0.13 0.00 91 1020.1
20260507120005 51 43 0.0 0.0 0.00 0.13 0.00 90 1020.1
20260507115504 51 43 0.0 0.0 0.00 0.13 0.00 90 1019.9
20260507115004 51 43 0.0 0.0 0.00 0.13 0.00 90 1019.9
20260507114504 51 43 0.0 0.0 0.00 0.13 0.00 90 1019.9
20260507114004 52 43 0.0 0.0 0.00 0.13 0.00 90 1019.9
20260507113504 52 43 0.0 0.0 0.00 0.13 0.00 90 1019.9
20260507113005 52 43 0.0 0.0 0.00 0.13 0.00 89 1019.8
20260507112004 52 43 0.0 3.0 0.00 0.13 0.00 89 1019.7
20260507111506 52 43 1.0 2.0 0.00 0.13 0.00 90 1019.7
20260507111004 52 59 0.0 0.0 0.00 0.13 0.00 89 1019.5
20260507110504 52 59 0.0 0.0 0.00 0.13 0.00 89 1019.5
20260507110004 52 59 0.0 0.0 0.00 0.13 0.00 90 1019.5
20260507105004 52 59 0.0 0.0 0.00 0.13 0.00 90 1019.4
20260507104504 52 59 0.0 0.0 0.00 0.13 0.00 89 1019.3
20260507104004 52 59 0.0 0.0 0.00 0.13 0.00 90 1019.2
20260507103504 52 59 0.0 0.0 0.00 0.13 0.00 89 1018.9
20260507103004 52 59 0.0 0.0 0.00 0.13 0.00 90 1018.9
20260507102504 52 59 0.0 0.0 0.00 0.13 0.00 89 1018.8
20260507101504 52 59 0.0 0.0 0.00 0.13 0.00 89 1018.7
20260507101004 52 59 0.0 0.0 0.00 0.13 0.00 89 1018.6
20260507100504 52 59 0.0 0.0 0.00 0.13 0.00 89 1018.5
20260507100004 52 59 0.0 0.0 0.00 0.13 0.00 89 1018.4
20260507095504 52 59 0.0 0.0 0.00 0.13 0.00 88 1018.6
20260507095004 52 59 0.0 0.0 0.00 0.13 0.00 88 1018.5
20260507094504 53 59 0.0 0.0 0.00 0.13 0.00 89 1018.4
20260507094003 53 59 0.0 0.0 0.00 0.13 0.00 88 1018.4
20260507093504 53 59 0.0 0.0 0.00 0.13 0.00 88 1018.4
20260507093004 53 59 0.0 0.0 0.00 0.13 0.00 88 1018.4
20260507092504 53 59 0.0 0.0 0.00 0.13 0.00 88 1018.3
20260507091504 53 59 0.0 0.0 0.00 0.13 0.00 87 1018.2
20260507091004 53 59 0.0 0.0 0.00 0.13 0.00 87 1018.4
20260507090503 53 59 0.0 0.0 0.00 0.13 0.00 87 1018.4
20260507090004 53 59 0.0 0.0 0.00 0.13 0.00 86 1018.3
20260507085003 54 59 0.0 0.0 0.00 0.13 0.00 86 1018.2
20260507084503 54 59 0.0 0.0 0.00 0.13 0.00 86 1018.2
20260507084004 54 59 0.0 0.0 0.00 0.13 0.00 86 1018.3
20260507083503 54 59 0.0 0.0 0.00 0.13 0.00 85 1018.3
20260507083004 54 27 0.0 0.0 0.00 0.13 0.00 85 1018.3
20260507082504 54 27 0.0 3.0 0.00 0.13 0.00 85 1018.4
20260507082004 54 41 0.0 2.0 0.00 0.13 0.00 84 1018.3
20260507081004 55 58 2.0 6.0 0.00 0.13 0.00 85 1018.2
20260507080503 55 79 1.0 6.0 0.00 0.13 0.00 84 1018.2
20260507080007 55 341 0.0 3.0 0.00 0.13 0.00 84 1018.0
20260507075507 55 57 1.0 5.0 0.00 0.13 0.00 84 1018.0
20260507073506 55 89 1.0 8.0 0.00 0.13 0.00 84 1018.0
20260507073006 55 74 3.0 9.0 0.00 0.13 0.00 84 1018.1
20260507072006 55 34 2.0 6.0 0.00 0.13 0.00 83 1018.1
20260507071507 55 56 6.0 13.0 0.00 0.13 0.00 83 1018.1
20260507071006 55 5 2.0 5.0 0.00 0.13 0.00 83 1018.1
20260507070506 55 38 3.0 7.0 0.00 0.13 0.00 83 1018.1
20260507070010 55 77 4.0 6.0 0.00 0.13 0.00 83 1018.1
20260507065507 56 30 2.0 10.0 0.00 0.13 0.00 83 1018.2
20260507065006 56 57 3.0 8.0 0.00 0.13 0.00 83 1018.2
20260507064507 56 67 1.0 8.0 0.00 0.13 0.00 83 1017.9
20260507064006 56 75 3.0 8.0 0.00 0.13 0.00 83 1017.9
20260507063506 56 82 1.0 7.0 0.00 0.13 0.00 83 1017.8
20260507063007 56 61 2.0 5.0 0.00 0.13 0.00 83 1017.8
20260507062007 56 93 3.0 8.0 0.00 0.13 0.00 83 1017.6
20260507061507 56 99 3.0 8.0 0.00 0.13 0.00 83 1017.7
20260507061006 56 84 2.0 6.0 0.00 0.13 0.00 82 1017.7
20260507060506 56 110 1.0 7.0 0.00 0.13 0.00 82 1017.5
20260507060007 56 76 3.0 12.0 0.00 0.13 0.00 82 1017.6
20260507055507 56 75 3.0 6.0 0.00 0.13 0.00 82 1017.5
20260507055006 57 115 3.0 10.0 0.00 0.13 0.00 82 1017.4
20260507054506 57 74 5.0 12.0 0.00 0.13 0.00 82 1017.5
20260507054007 57 76 5.0 10.0 0.00 0.13 0.00 81 1017.5
20260507053507 57 69 2.0 5.0 0.00 0.13 0.00 81 1017.6
20260507053006 57 79 4.0 7.0 0.00 0.13 0.00 81 1017.5
20260507052507 57 83 3.0 9.0 0.00 0.13 0.00 81 1017.7
20260507052006 57 88 3.0 8.0 0.00 0.13 0.00 80 1017.5
20260507051506 57 86 2.0 8.0 0.00 0.13 0.00 81 1017.6
20260507051006 57 45 2.0 7.0 0.00 0.13 0.00 80 1017.7
20260507050506 57 56 1.0 3.0 0.00 0.13 0.00 80 1017.7
20260507045506 57 82 1.0 5.0 0.00 0.13 0.13 80 1017.7
20260507045006 57 82 2.0 5.0 0.00 0.13 0.13 79 1017.7
20260507044507 57 74 4.0 9.0 0.00 0.13 0.13 79 1017.8
20260507044006 58 85 2.0 6.0 0.00 0.13 0.13 78 1017.8
20260507043507 58 69 3.0 9.0 0.00 0.13 0.13 78 1017.8
20260507043006 58 87 3.0 10.0 0.00 0.13 0.13 77 1017.9
20260507042506 58 76 7.0 12.0 0.00 0.13 0.13 76 1017.9
20260507042006 58 65 5.0 10.0 0.00 0.13 0.13 75 1018.0
20260507041506 59 82 3.0 8.0 0.00 0.13 0.13 75 1018.2
20260507035507 59 59 6.0 13.0 0.00 0.13 0.13 73 1018.1
20260507035007 59 28 3.0 13.0 0.00 0.13 0.13 74 1018.1
20260507034506 59 59 6.0 13.0 0.00 0.13 0.13 74 1018.2
20260507033506 59 47 5.0 13.0 0.00 0.13 0.13 73 1018.1
20260507033006 59 36 6.0 15.0 0.00 0.13 0.13 73 1018.0
20260507032506 59 10 5.0 14.0 0.00 0.13 0.13 73 1018.1
20260507032006 59 59 4.0 13.0 0.00 0.13 0.13 73 1017.9
20260507031506 59 36 6.0 13.0 0.00 0.13 0.13 74 1017.9
20260507031006 59 21 3.0 12.0 0.00 0.13 0.13 74 1017.8
20260507030506 60 41 4.0 12.0 0.00 0.13 0.13 75 1017.6
20260507030006 60 25 6.0 15.0 0.00 0.13 0.13 76 1017.5
20260507025506 60 1 2.0 6.0 0.00 0.13 0.13 77 1017.4
20260507025006 60 28 2.0 9.0 0.00 0.13 0.13 77 1017.2
20260507024506 60 33 3.0 10.0 0.00 0.13 0.13 76 1017.2
20260507024006 60 61 3.0 9.0 0.00 0.13 0.13 76 1017.1
20260507023506 60 89 3.0 10.0 0.00 0.13 0.13 76 1017.0
20260507023006 60 76 6.0 13.0 0.00 0.13 0.13 76 1016.9
20260507022006 60 71 3.0 12.0 0.00 0.13 0.13 77 1016.7
20260507021006 60 41 4.0 12.0 0.00 0.13 0.13 77 1016.5
20260507020506 60 59 5.0 12.0 0.00 0.13 0.13 77 1016.5
20260507015506 60 93 4.0 7.0 0.00 0.13 0.13 78 1016.2
20260507015006 60 57 3.0 8.0 0.00 0.13 0.13 78 1016.1
20260507014506 60 68 2.0 9.0 0.00 0.13 0.13 78 1016.0
20260507012506 60 50 3.0 7.0 0.00 0.13 0.13 77 1015.6
20260507012006 60 87 3.0 9.0 0.00 0.13 0.13 77 1015.5